Location: Anjeux
(47.8815°N, 6.2076°E)
Time: 19:20:32
(UTC+00:00)

VELOX 1 - Visible Passes

Search period start: 07 December 2021 00:00
Search period end: 17 December 2021 00:00
Orbit: 627 x 641 km, 98.3° (Epoch: 07 December)

Date Brightness Start Highest point End Pass type
(mag) Time Alt. Az. Time Alt. Az. Time Alt. Az.
07 Dec ? 16:46:18 10° N 16:50:41 61° WNW 16:55:00 10° SSW visible
08 Dec ? 17:08:09 10° N 17:12:15 38° WNW 17:16:19 10° SW visible
09 Dec ? 17:30:09 10° N 17:33:45 25° WNW 17:37:20 10° WSW visible
10 Dec ? 16:14:56 10° NNE 16:19:20 65° ESE 16:23:41 10° S visible
10 Dec ? 17:52:24 10° NNW 17:55:12 17° WNW 17:58:00 10° W visible
11 Dec ? 16:36:35 10° NNE 16:41:00 78° WNW 16:45:22 10° SSW visible
11 Dec ? 18:15:19 10° NW 18:16:35 11° NW 18:17:50 10° WNW visible
12 Dec ? 16:58:21 10° N 17:02:36 48° WNW 17:06:49 10° SW visible
13 Dec ? 17:20:16 10° N 17:24:08 31° WNW 17:27:58 10° SW visible
14 Dec ? 17:42:22 10° NNW 17:45:37 20° WNW 17:48:49 10° WSW visible
15 Dec ? 16:26:52 10° NNE 16:31:17 83° ESE 16:35:40 10° SSW visible
15 Dec ? 18:04:50 10° NNW 18:07:01 14° WNW 18:09:10 10° W visible
16 Dec ? 16:48:34 10° N 16:52:55 61° WNW 16:57:13 10° SSW visible
